This demonstration page uses our WeatherBlox Daily Observations layout. Learn more.

Left ArrowRight Arrow

Hourly Observations for August 11, 2021

Temp ( °F °C ) Dew Point ( °F °C ) Humidity (%) Winds ( mph kmh ) Pressure ( in mb ) Visibility ( mi km ) Precip ( " mm )
12:59 am 00:59 Partly Cloudy 81 27.2 74 23.3 79 79 SSW 8 13 30.13 1020 10 16 0.00 0.00
1:59 am 01:59 Clear 80 26.7 74 23.3 82 82 SSW 10 17 30.11 1020 10 16 0.00 0.00
2:59 am 02:59 Mostly Clear 80 26.7 74 23.3 82 82 SSW 9 15 30.11 1020 10 16 0.00 0.00
3:59 am 03:59 Clear 79 26.1 74 23.3 85 85 SSW 8 13 30.10 1019 9 14 0.00 0.00
4:59 am 04:59 Mostly Clear 79 26.1 73 22.8 82 82 SSW 8 13 30.10 1019 9 14 0.00 0.00
5:59 am 05:59 Mostly Clear 78 25.6 73 22.8 85 85 SSW 8 13 30.11 1020 9 14 0.00 0.00
6:59 am 06:59 Mostly Sunny 78 25.6 73 22.8 85 85 SSW 10 17 30.11 1020 8 13 0.00 0.00
7:59 am 07:59 Sunny 80 26.7 73 22.8 79 79 SW 7 11 30.13 1020 8 13 0.00 0.00
8:59 am 08:59 Sunny 83 28.3 74 23.3 74 74 SSW 9 15 30.13 1020 8 13 0.00 0.00
9:59 am 09:59 Sunny 85 29.4 74 23.3 70 70 SW 10 17 30.12 1020 8 13 0.00 0.00
10:59 am 10:59 Mostly Sunny 88 31.1 75 23.9 66 66 SW 9 15 30.11 1020 10 16 0.00 0.00
11:59 am 11:59 Mostly Sunny 90 32.2 75 23.9 62 62 SSW 9 15 30.11 1020 10 16 0.00 0.00
12:59 pm 12:59 Mostly Sunny 92 33.3 75 23.9 58 58 SW 13 20 30.09 1019 10 16 0.00 0.00
1:59 pm 13:59 Sunny 93 33.9 74 23.3 54 54 SW 12 19 30.09 1019 7 11 0.00 0.00
2:59 pm 14:59 Mostly Sunny 93 33.9 75 23.9 56 56 SSW 8 13 30.07 1018 7 11 0.00 0.00
3:59 pm 15:59 Partly Cloudy 93 33.9 75 23.9 56 56 SSW 9 15 30.04 1017 10 16 0.00 0.00
4:59 pm 16:59 Mostly Sunny 92 33.3 74 23.3 56 56 SW 8 13 30.02 1017 10 16 0.00 0.00
5:59 pm 17:59 Mostly Sunny 92 33.3 74 23.3 56 56 WSW 9 15 30.04 1017 10 16 0.00 0.00
6:59 pm 18:59 Partly Cloudy 91 32.8 75 23.9 59 59 SW 12 19 30.04 1017 7 11 0.00 0.00
7:59 pm 19:59 Partly Cloudy 89 31.7 74 23.3 61 61 SW 7 11 30.06 1018 7 11 0.00 0.00
8:59 pm 20:59 Partly Cloudy 87 30.6 75 23.9 67 67 SW 5 7 30.08 1019 8 13 0.00 0.00
9:27 pm 21:27 Partly Cloudy with Thunderstorms 86 30 72 22.2 63 63 N 10 17 30.10 1019 9 14 0.00 0.00
9:35 pm 21:35 Mostly Cloudy 85 29.4 71 21.7 63 63 N 9 15 30.10 1019 10 16 0.00 0.00
9:39 pm 21:39 Mostly Cloudy with Thunderstorms 85 29.4 70 21.1 61 61 N 13 20 30.10 1019 10 16 0.00 0.00
9:59 pm 21:59 Mostly Cloudy with Thunderstorms 84 28.9 70 21.1 63 63 NE 8 13 30.10 1019 10 16 0.00 0.00
10:27 pm 22:27 Mostly Cloudy 82 27.8 71 21.7 69 69 S 5 7 30.10 1019 9 14 0.00 0.00
10:59 pm 22:59 Mostly Cloudy 81 27.2 71 21.7 72 72 SSE 3 6 30.10 1019 9 14 0.00 0.00
11:59 pm 23:59 Mostly Cloudy 81 27.2 70 21.1 69 69 S 5 7 30.09 1019 9 14 0.00 0.00

Powered by AerisWeather